GW2737 Weather Reports


time (UTC)temp
C
wind
direction
speed
KPH
gust
KPH
rain 1hr
cm
rain 24hr
cm
rain mn
cm
humidity
%
barometer
mb
20260503180524 22 78 1.6 4.8 0.00 0.00 0.00 44 1014.4
20260503180048 22 49 1.6 4.8 0.00 0.00 0.00 44 1014.4
20260503175525 22 14 1.6 4.8 0.00 0.00 0.00 43 1014.5
20260503175024 22 10 3.2 4.8 0.00 0.00 0.00 43 1014.5
20260503174546 22 68 0.0 11.3 0.00 0.00 0.00 46 1014.6
20260503174025 21 327 4.8 11.3 0.00 0.00 0.00 44 1014.7
20260503173524 21 55 3.2 6.4 0.00 0.00 0.00 44 1014.7
20260503173052 21 70 3.2 6.4 0.00 0.00 0.00 45 1014.9
20260503172523 21 0 0.0 6.4 0.00 0.00 0.00 47 1015.0
20260503172027 21 36 1.6 6.4 0.00 0.00 0.00 47 1014.9
20260503171537 21 138 3.2 6.4 0.00 0.00 0.00 51 1015.0
20260503171027 20 330 1.6 6.4 0.00 0.00 0.00 48 1014.9
20260503170528 20 329 1.6 6.4 0.00 0.00 0.00 50 1015.0
20260503150528 13 0 0.0 1.6 0.00 0.00 0.00 80 1015.3
20260503131025 8 241 0.0 1.6 0.00 0.00 0.00 93 1015.1
20260503130524 8 0 0.0 4.8 0.00 0.00 0.00 93 1015.2
20260503110525 10 0 0.0 0.0 0.00 0.00 0.00 91 1015.3
20260503081542 11 0 0.0 1.6 0.00 0.00 0.00 87 1015.1
20260503081025 12 0 0.0 1.6 0.00 0.00 0.00 86 1015.0
20260503080525 12 0 0.0 1.6 0.00 0.00 0.00 85 1015.2
20260503072524 13 0 0.0 0.0 0.00 0.00 0.00 83 1015.1
20260503072027 13 0 0.0 0.0 0.00 0.00 0.00 82 1015.0
20260503071546 13 0 0.0 0.0 0.00 0.00 0.00 82 1014.9
20260503071025 13 0 0.0 0.0 0.00 0.00 0.00 82 1014.9
20260503070527 13 0 0.0 1.6 0.00 0.00 0.00 80 1014.9
20260503055024 15 0 0.0 0.0 0.00 0.00 0.00 74 1014.5
20260503054542 15 0 0.0 0.0 0.00 0.00 0.00 73 1014.5
20260503054024 16 0 0.0 1.6 0.00 0.00 0.00 71 1014.5
20260503053525 16 0 0.0 1.6 0.00 0.00 0.00 70 1014.4
20260503053039 16 0 0.0 1.6 0.00 0.00 0.00 70 1014.4
20260503052524 16 0 0.0 1.6 0.00 0.00 0.00 70 1014.4
20260503052024 16 0 0.0 1.6 0.00 0.00 0.00 69 1014.5
20260503051539 16 0 0.0 1.6 0.00 0.00 0.00 68 1014.5
20260503051024 16 146 0.0 1.6 0.00 0.00 0.00 68 1014.6
20260503050525 17 150 0.0 1.6 0.00 0.00 0.00 68 1014.5
20260503050037 17 0 0.0 3.2 0.00 0.00 0.00 68 1014.4
20260503045526 17 160 0.0 3.2 0.00 0.00 0.00 68 1014.4
20260503045024 17 175 0.0 1.6 0.00 0.00 0.00 68 1014.4
20260503044539 17 0 0.0 1.6 0.00 0.00 0.00 68 1014.5
20260503044024 17 165 0.0 1.6 0.00 0.00 0.00 68 1014.4
20260503043524 17 128 0.0 1.6 0.00 0.00 0.00 68 1014.4
20260503043037 18 0 0.0 1.6 0.00 0.00 0.00 67 1014.4
20260503042527 18 127 0.0 1.6 0.00 0.00 0.00 66 1014.3
20260503042024 18 94 0.0 1.6 0.00 0.00 0.00 65 1014.3
20260503041544 18 103 0.0 3.2 0.00 0.00 0.00 65 1014.3
20260503041025 18 187 0.0 3.2 0.00 0.00 0.00 64 1014.2
20260503040524 18 188 1.6 3.2 0.00 0.00 0.00 63 1014.3
20260503040039 19 129 1.6 4.8 0.00 0.00 0.00 63 1014.3
20260503035525 19 0 0.0 4.8 0.00 0.00 0.00 62 1014.2
20260503035029 20 121 0.0 3.2 0.00 0.00 0.00 61 1014.0
20260503034538 20 203 0.0 3.2 0.00 0.00 0.00 60 1013.9
20260503034024 20 0 0.0 3.2 0.00 0.00 0.00 59 1013.8
20260503033524 20 138 1.6 4.8 0.00 0.00 0.00 59 1013.7
20260503033040 21 176 0.0 4.8 0.00 0.00 0.00 58 1013.7
20260503032524 21 159 0.0 6.4 0.00 0.00 0.00 56 1013.6
20260503032024 21 159 0.0 6.4 0.00 0.00 0.00 56 1013.7
20260503031544 22 150 1.6 6.4 0.00 0.00 0.00 56 1013.8
20260503031025 22 150 1.6 6.4 0.00 0.00 0.00 56 1013.8
20260503030525 22 132 1.6 6.4 0.00 0.00 0.00 56 1013.7
20260503030052 22 184 0.0 8.0 0.00 0.00 0.00 55 1013.7
20260503025524 22 121 3.2 8.0 0.00 0.00 0.00 54 1013.6
20260503025024 23 123 3.2 8.0 0.00 0.00 0.00 51 1013.6
20260503024542 23 134 1.6 8.0 0.00 0.00 0.00 47 1013.5
20260503024025 24 225 3.2 8.0 0.00 0.00 0.00 45 1013.7
20260503023527 24 250 0.0 9.7 0.00 0.00 0.00 45 1013.6
20260503023037 25 242 3.2 9.7 0.00 0.00 0.00 44 1013.5
20260503022524 25 0 0.0 6.4 0.00 0.00 0.00 43 1013.6
20260503022024 25 161 1.6 9.7 0.00 0.00 0.00 43 1013.6
20260503021540 25 217 0.0 9.7 0.00 0.00 0.00 44 1013.7
20260503021025 25 150 3.2 9.7 0.00 0.00 0.00 43 1013.7
20260503020525 25 140 1.6 6.4 0.00 0.00 0.00 43 1013.7
20260503020037 25 130 1.6 6.4 0.00 0.00 0.00 43 1013.7
20260503015525 25 163 3.2 6.4 0.00 0.00 0.00 43 1013.7
20260503015025 26 252 1.6 6.4 0.00 0.00 0.00 41 1013.7
20260503014600 26 253 1.6 6.4 0.00 0.00 0.00 41 1013.9
20260503014025 26 192 0.0 6.4 0.00 0.00 0.00 41 1013.8
20260503013525 26 151 0.0 6.4 0.00 0.00 0.00 40 1013.8
20260503013042 26 232 1.6 6.4 0.00 0.00 0.00 38 1013.9
20260503012525 26 251 1.6 6.4 0.00 0.00 0.00 39 1013.9
20260503012024 26 252 1.6 9.7 0.00 0.00 0.00 41 1013.9
20260503011548 25 250 1.6 9.7 0.00 0.00 0.00 41 1014.0
20260503011025 25 224 3.2 11.3 0.00 0.00 0.00 41 1014.1
20260503010525 25 304 3.2 11.3 0.00 0.00 0.00 40 1014.1
20260503010038 25 23 4.8 9.7 0.00 0.00 0.00 39 1013.9
20260503005528 26 273 4.8 8.0 0.00 0.00 0.00 41 1014.1
20260503005025 25 260 3.2 8.0 0.00 0.00 0.00 44 1014.1
20260503004539 25 264 1.6 8.0 0.00 0.00 0.00 43 1014.2
20260503004025 25 242 3.2 11.3 0.00 0.00 0.00 45 1014.1
20260503003524 25 0 3.2 11.3 0.00 0.00 0.00 45 1014.1
20260503003046 25 234 3.2 12.9 0.00 0.00 0.00 46 1014.2
20260503002527 25 250 4.8 12.9 0.00 0.00 0.00 45 1014.2
20260503002024 25 272 4.8 12.9 0.00 0.00 0.00 45 1014.2
20260503001537 25 300 3.2 12.9 0.00 0.00 0.00 46 1014.2
20260503001026 25 267 4.8 12.9 0.00 0.00 0.00 46 1014.2
20260503000525 25 251 4.8 9.7 0.00 0.00 0.00 45 1014.3
20260503000037 25 209 3.2 11.3 0.00 0.00 0.00 46 1014.3
20260502235525 25 257 3.2 11.3 0.00 0.00 0.00 47 1014.4
20260502235029 24 301 4.8 11.3 0.00 0.00 0.00 46 1014.4
20260502234541 24 248 6.4 12.9 0.00 0.00 0.00 47 1014.4
20260502234025 24 230 4.8 12.9 0.00 0.00 0.00 47 1014.5
20260502233524 24 270 6.4 12.9 0.00 0.00 0.00 47 1014.6
20260502233039 24 261 6.4 14.5 0.00 0.00 0.00 47 1014.7
20260502232524 24 281 6.4 16.1 0.00 0.00 0.00 47 1014.7
20260502232025 24 224 4.8 16.1 0.00 0.00 0.00 47 1014.7
20260502231538 24 275 4.8 16.1 0.00 0.00 0.00 46 1014.8
20260502231025 23 296 4.8 16.1 0.00 0.00 0.00 48 1014.8
20260502230525 23 232 8.0 14.5 0.00 0.00 0.00 48 1015.0
20260502230038 23 215 6.4 12.9 0.00 0.00 0.00 47 1014.9
20260502225524 23 280 4.8 20.9 0.00 0.00 0.00 47 1015.1
20260502225024 23 261 11.3 20.9 0.00 0.00 0.00 45 1015.1
20260502224537 23 271 8.0 19.3 0.00 0.00 0.00 45 1015.1
20260502224024 23 279 9.7 19.3 0.00 0.00 0.00 45 1015.2
20260502223529 23 221 8.0 19.3 0.00 0.00 0.00 46 1015.3
20260502223037 23 271 8.0 20.9 0.00 0.00 0.00 46 1015.4
20260502222524 23 236 8.0 22.5 0.00 0.00 0.00 46 1015.4
20260502222025 23 232 14.5 22.5 0.00 0.00 0.00 45 1015.5
20260502221541 23 300 8.0 19.3 0.00 0.00 0.00 47 1015.4
20260502221025 23 277 6.4 17.7 0.00 0.00 0.00 49 1015.6
20260502220525 23 236 6.4 20.9 0.00 0.00 0.00 49 1015.6
20260502220041 23 286 11.3 20.9 0.00 0.00 0.00 50 1015.6
20260502215528 23 238 8.0 22.5 0.00 0.00 0.00 51 1015.7
20260502215024 23 215 8.0 22.5 0.00 0.00 0.00 51 1015.8
20260502214537 23 225 8.0 19.3 0.00 0.00 0.00 52 1015.8
20260502214026 23 250 9.7 20.9 0.00 0.00 0.00 52 1015.8
20260502213524 23 232 11.3 20.9 0.00 0.00 0.00 51 1015.9
20260502213042 23 317 6.4 20.9 0.00 0.00 0.00 53 1016.0
20260502212524 23 325 6.4 20.9 0.00 0.00 0.00 54 1016.1
20260502212024 23 259 6.4 17.7 0.00 0.00 0.00 53 1016.1
20260502211536 23 229 8.0 17.7 0.00 0.00 0.00 54 1016.1
20260502211025 22 236 9.7 20.9 0.00 0.00 0.00 55 1016.1
20260502210525 22 263 8.0 20.9 0.00 0.00 0.00 56 1016.2
20260502210040 22 246 9.7 16.1 0.00 0.00 0.00 55 1016.2
20260502205525 23 258 8.0 20.9 0.00 0.00 0.00 54 1016.2
20260502205025 22 225 6.4 20.9 0.00 0.00 0.00 55 1016.3
20260502204539 22 234 8.0 16.1 0.00 0.00 0.00 55 1016.4
20260502204025 22 229 8.0 16.1 0.00 0.00 0.00 56 1016.4
20260502203524 22 281 9.7 16.1 0.00 0.00 0.00 54 1016.5
20260502203055 23 331 6.4 20.9 0.00 0.00 0.00 54 1016.5
20260502202526 23 230 9.7 20.9 0.00 0.00 0.00 54 1016.6
20260502202024 23 288 9.7 20.9 0.00 0.00 0.00 54 1016.5
20260502201537 23 285 4.8 11.3 0.00 0.00 0.00 50 1016.6
20260502201029 23 265 3.2 11.3 0.00 0.00 0.00 48 1016.6
20260502200525 23 11 3.2 14.5 0.00 0.00 0.00 51 1016.7
20260502200039 23 269 3.2 14.5 0.00 0.00 0.00 48 1016.8
20260502195524 22 271 6.4 14.5 0.00 0.00 0.00 48 1016.9
20260502195024 22 34 4.8 12.9 0.00 0.00 0.00 50 1016.9
20260502194537 22 285 3.2 12.9 0.00 0.00 0.00 48 1016.9
20260502194024 22 286 3.2 12.9 0.00 0.00 0.00 50 1016.9
20260502193525 22 13 4.8 11.3 0.00 0.00 0.00 51 1016.8
20260502193041 22 248 4.8 11.3 0.00 0.00 0.00 49 1016.8
20260502192527 22 232 3.2 11.3 0.00 0.00 0.00 50 1016.8
20260502192026 22 0 3.2 11.3 0.00 0.00 0.00 51 1016.9
20260502191540 22 273 3.2 9.7 0.00 0.00 0.00 50 1016.9
20260502191025 22 188 0.0 11.3 0.00 0.00 0.00 54 1016.9
20260502190525 21 18 4.8 11.3 0.00 0.00 0.00 52 1017.0
20260502190038 21 332 3.2 12.9 0.00 0.00 0.00 54 1017.0
20260502185524 21 221 3.2 12.9 0.00 0.00 0.00 53 1017.1
20260502185024 21 84 3.2 12.9 0.00 0.00 0.00 52 1017.2
20260502184537 21 268 1.6 8.0 0.00 0.00 0.00 56 1017.2
20260502184024 21 352 1.6 8.0 0.00 0.00 0.00 55 1017.2
20260502183526 20 334 3.2 8.0 0.00 0.00 0.00 55 1017.3
20260502183037 20 344 1.6 11.3 0.00 0.00 0.00 58 1017.4
20260502182527 20 348 3.2 11.3 0.00 0.00 0.00 56 1017.4
20260502182024 20 323 4.8 11.3 0.00 0.00 0.00 56 1017.5
20260502181603 20 335 3.2 11.3 0.00 0.00 0.00 55 1017.5
20260502181024 20 297 4.8 9.7 0.00 0.00 0.00 55 1017.6